Photometre #851[NE_1.6_Dp] Glasgow_MO AOT

File : 20220923_851.hum

23/09/2022,07:08:37,TEMP=8.6,BA=5.64,STAT.A,ExtBa=12.20
23/09/2022,07:12:23,TEMP=9.1,BA=5.64,STAT.D,ExtBa=12.10
23/09/2022,07:14:16,TEMP=9.8,BA=5.64,STAT.A,ExtBa=12.10
23/09/2022,07:18:23,TEMP=9.9,BA=5.64,STAT.D,ExtBa=12.10
23/09/2022,07:20:24,TEMP=10.5,BA=5.64,STAT.A,ExtBa=12.10
23/09/2022,07:24:23,TEMP=10.4,BA=5.64,STAT.D,ExtBa=12.10
23/09/2022,07:26:18,TEMP=10.9,BA=5.64,STAT.A,ExtBa=12.00
23/09/2022,07:30:23,TEMP=11.1,BA=5.64,STAT.D,ExtBa=12.10
23/09/2022,07:33:06,TEMP=11.5,BA=5.64,STAT.A,ExtBa=12.10
23/09/2022,07:36:23,TEMP=11.9,BA=5.64,STAT.D,ExtBa=12.10
23/09/2022,07:39:23,TEMP=12.1,BA=5.64,STAT.D,ExtBa=12.00
23/09/2022,07:42:23,TEMP=12.3,BA=5.64,STAT.D,ExtBa=12.00
23/09/2022,07:44:23,TEMP=12.7,BA=5.64,STAT.A,ExtBa=12.00
23/09/2022,07:48:23,TEMP=12.4,BA=5.64,STAT.D,ExtBa=12.10
23/09/2022,07:51:23,TEMP=12.5,BA=5.64,STAT.D,ExtBa=12.00
23/09/2022,07:55:22,TEMP=12.3,BA=5.64,STAT.B,ExtBa=12.10
23/09/2022,08:01:23,TEMP=12.0,BA=5.64,STAT.A,ExtBa=12.10
23/09/2022,08:08:11,TEMP=11.7,BA=5.64,STAT.A,ExtBa=12.10
23/09/2022,08:15:54,TEMP=11.4,BA=5.64,STAT.A,ExtBa=12.10
23/09/2022,08:18:24,TEMP=11.6,BA=5.64,STAT.D,ExtBa=12.00
23/09/2022,08:24:48,TEMP=11.4,BA=5.64,STAT.A,ExtBa=12.10
23/09/2022,08:27:23,TEMP=11.9,BA=5.64,STAT.D,ExtBa=12.00
23/09/2022,08:30:23,TEMP=12.4,BA=5.64,STAT.D,ExtBa=12.00
23/09/2022,08:33:24,TEMP=12.8,BA=5.64,STAT.D,ExtBa=12.00
23/09/2022,08:35:26,TEMP=13.5,BA=5.64,STAT.C,ExtBa=12.00
23/09/2022,09:00:05,TEMP=16.9,BA=5.60,STAT.A,ExtBa=11.90
23/09/2022,09:03:22,TEMP=16.7,BA=5.60,STAT.A,ExtBa=12.00
23/09/2022,09:11:16,TEMP=16.0,BA=5.64,STAT.F,ExtBa=12.00
23/09/2022,09:24:24,TEMP=15.4,BA=5.64,STAT.D,ExtBa=12.10
23/09/2022,09:26:22,TEMP=15.8,BA=5.64,STAT.D,ExtBa=12.00
23/09/2022,09:30:24,TEMP=15.4,BA=5.64,STAT.D,ExtBa=12.00
23/09/2022,09:41:15,TEMP=15.2,BA=5.64,STAT.D,ExtBa=12.10
23/09/2022,09:45:24,TEMP=16.0,BA=5.64,STAT.D,ExtBa=12.00
23/09/2022,09:48:24,TEMP=16.7,BA=5.64,STAT.D,ExtBa=12.00
23/09/2022,09:51:24,TEMP=16.9,BA=5.64,STAT.D,ExtBa=12.00
23/09/2022,09:54:24,TEMP=17.0,BA=5.64,STAT.D,ExtBa=12.00
23/09/2022,09:56:19,TEMP=17.2,BA=5.64,STAT.D,ExtBa=12.00
23/09/2022,10:09:24,TEMP=16.3,BA=5.64,STAT.D,ExtBa=12.00
23/09/2022,10:11:21,TEMP=16.6,BA=5.64,STAT.F,ExtBa=12.00
23/09/2022,10:26:15,TEMP=16.2,BA=5.64,STAT.D,ExtBa=12.00
23/09/2022,10:39:24,TEMP=14.9,BA=5.64,STAT.D,ExtBa=12.00
23/09/2022,10:41:22,TEMP=15.5,BA=5.64,STAT.D,ExtBa=12.00
23/09/2022,10:45:24,TEMP=15.8,BA=5.64,STAT.D,ExtBa=12.00
23/09/2022,10:48:24,TEMP=16.2,BA=5.64,STAT.D,ExtBa=12.00
23/09/2022,10:56:15,TEMP=15.8,BA=5.64,STAT.D,ExtBa=12.00
23/09/2022,11:00:24,TEMP=16.1,BA=5.64,STAT.D,ExtBa=12.00
23/09/2022,11:11:17,TEMP=16.2,BA=5.64,STAT.F,ExtBa=12.00
23/09/2022,11:24:24,TEMP=15.6,BA=5.64,STAT.D,ExtBa=12.10
23/09/2022,11:26:21,TEMP=16.1,BA=5.64,STAT.D,ExtBa=12.00
23/09/2022,11:30:24,TEMP=16.3,BA=5.64,STAT.D,ExtBa=12.00
23/09/2022,11:33:24,TEMP=16.5,BA=5.64,STAT.D,ExtBa=12.00
23/09/2022,11:41:15,TEMP=15.5,BA=5.64,STAT.D,ExtBa=12.00
23/09/2022,11:54:24,TEMP=12.4,BA=5.64,STAT.D,ExtBa=12.10
23/09/2022,11:56:20,TEMP=12.6,BA=5.64,STAT.D,ExtBa=12.00
23/09/2022,12:09:24,TEMP=11.8,BA=5.64,STAT.D,ExtBa=12.10
23/09/2022,12:11:22,TEMP=12.3,BA=5.64,STAT.F,ExtBa=12.10
23/09/2022,12:24:24,TEMP=13.2,BA=5.64,STAT.D,ExtBa=12.10
23/09/2022,12:26:20,TEMP=13.8,BA=5.64,STAT.D,ExtBa=12.10
23/09/2022,12:39:24,TEMP=14.5,BA=5.64,STAT.D,ExtBa=12.10
23/09/2022,12:41:22,TEMP=15.3,BA=5.64,STAT.D,ExtBa=12.00
23/09/2022,12:45:24,TEMP=15.5,BA=5.64,STAT.D,ExtBa=12.00
23/09/2022,12:48:24,TEMP=15.8,BA=5.64,STAT.D,ExtBa=12.00
23/09/2022,12:51:24,TEMP=15.9,BA=5.64,STAT.D,ExtBa=12.00
23/09/2022,12:54:24,TEMP=16.1,BA=5.64,STAT.D,ExtBa=12.00
23/09/2022,12:56:21,TEMP=16.5,BA=5.64,STAT.D,ExtBa=12.00
23/09/2022,13:00:24,TEMP=16.3,BA=5.64,STAT.D,ExtBa=12.00
23/09/2022,13:11:17,TEMP=15.5,BA=5.64,STAT.F,ExtBa=12.00
23/09/2022,13:24:24,TEMP=15.7,BA=5.64,STAT.D,ExtBa=12.10
23/09/2022,13:26:22,TEMP=16.3,BA=5.64,STAT.D,ExtBa=12.00
23/09/2022,13:32:53,TEMP=16.6,BA=5.60,STAT.D,ExtBa=12.00
23/09/2022,13:36:24,TEMP=16.9,BA=5.60,STAT.D,ExtBa=12.00
23/09/2022,13:39:24,TEMP=17.2,BA=5.60,STAT.D,ExtBa=12.00
23/09/2022,13:41:22,TEMP=17.5,BA=5.60,STAT.D,ExtBa=12.00
23/09/2022,13:45:24,TEMP=17.3,BA=5.60,STAT.D,ExtBa=12.00
23/09/2022,13:48:24,TEMP=17.5,BA=5.60,STAT.D,ExtBa=12.00
23/09/2022,13:51:24,TEMP=17.6,BA=5.64,STAT.D,ExtBa=12.00
23/09/2022,13:54:24,TEMP=17.7,BA=5.64,STAT.D,ExtBa=12.00
23/09/2022,13:56:21,TEMP=18.0,BA=5.64,STAT.D,ExtBa=12.00
23/09/2022,14:00:24,TEMP=17.7,BA=5.64,STAT.D,ExtBa=12.00
23/09/2022,14:03:24,TEMP=17.8,BA=5.64,STAT.D,ExtBa=12.00
23/09/2022,14:06:24,TEMP=17.9,BA=5.64,STAT.D,ExtBa=12.00
23/09/2022,14:09:24,TEMP=17.7,BA=5.64,STAT.D,ExtBa=12.00
23/09/2022,14:11:18,TEMP=18.0,BA=5.60,STAT.F,ExtBa=12.00
23/09/2022,14:35:01,TEMP=18.2,BA=5.60,STAT.D,ExtBa=11.90
23/09/2022,14:39:24,TEMP=18.1,BA=5.60,STAT.D,ExtBa=12.00
23/09/2022,14:41:31,TEMP=18.6,BA=5.60,STAT.D,ExtBa=11.90
23/09/2022,14:54:24,TEMP=17.3,BA=5.64,STAT.D,ExtBa=12.00
23/09/2022,14:56:23,TEMP=17.7,BA=5.64,STAT.D,ExtBa=12.00
23/09/2022,15:00:24,TEMP=17.4,BA=5.64,STAT.D,ExtBa=12.00
23/09/2022,15:03:24,TEMP=17.2,BA=5.64,STAT.D,ExtBa=12.00
23/09/2022,15:06:24,TEMP=16.9,BA=5.64,STAT.D,ExtBa=12.00
23/09/2022,15:09:24,TEMP=16.7,BA=5.64,STAT.D,ExtBa=12.00
23/09/2022,15:11:25,TEMP=17.0,BA=5.60,STAT.F,ExtBa=12.00
23/09/2022,15:20:15,TEMP=16.0,BA=5.60,STAT.A,ExtBa=12.00
23/09/2022,15:33:24,TEMP=14.7,BA=5.64,STAT.D,ExtBa=12.00
23/09/2022,15:35:22,TEMP=15.0,BA=5.64,STAT.A,ExtBa=12.00
23/09/2022,15:47:23,TEMP=13.9,BA=5.64,STAT.C,ExtBa=12.00
23/09/2022,16:12:32,TEMP=15.3,BA=5.60,STAT.A,ExtBa=11.90
23/09/2022,16:15:44,TEMP=14.9,BA=5.60,STAT.A,ExtBa=12.00
23/09/2022,16:17:53,TEMP=15.1,BA=5.60,STAT.A,ExtBa=12.00
23/09/2022,16:21:09,TEMP=14.8,BA=5.64,STAT.A,ExtBa=12.00
23/09/2022,16:24:24,TEMP=14.6,BA=5.64,STAT.D,ExtBa=12.00
23/09/2022,16:27:10,TEMP=14.7,BA=5.64,STAT.B,ExtBa=12.00
23/09/2022,16:36:23,TEMP=14.9,BA=5.56,STAT.D,ExtBa=11.90
23/09/2022,16:39:23,TEMP=14.9,BA=5.56,STAT.D,ExtBa=11.90
23/09/2022,16:41:31,TEMP=15.2,BA=5.56,STAT.A,ExtBa=11.90
23/09/2022,16:45:23,TEMP=15.1,BA=5.56,STAT.D,ExtBa=12.00
23/09/2022,16:48:23,TEMP=15.3,BA=5.56,STAT.D,ExtBa=11.90
23/09/2022,16:50:26,TEMP=15.7,BA=5.56,STAT.A,ExtBa=11.90
23/09/2022,16:54:23,TEMP=15.4,BA=5.56,STAT.D,ExtBa=12.00
23/09/2022,16:57:19,TEMP=15.4,BA=5.56,STAT.A,ExtBa=11.90
23/09/2022,17:00:23,TEMP=15.4,BA=5.64,STAT.D,ExtBa=11.90
23/09/2022,17:03:23,TEMP=15.2,BA=5.64,STAT.D,ExtBa=11.90
23/09/2022,17:05:23,TEMP=15.5,BA=5.64,STAT.A,ExtBa=11.90
23/09/2022,17:09:16,TEMP=15.0,BA=5.64,STAT.A,ExtBa=12.00